Location: Unspecified
(41.1637°N, 24.2901°E)
Time: 07:26:38
(UTC+01:00)

ISS - Pass Details

Date: 14 December 2018
Orbit: 401 x 408 km, 51.6° (Epoch: 12 December)

Event Time Altitude Azimuth Distance (km) Brightness Sun altitude
Rises 17:15:14 0° 293° (WNW) 2,315 0.8 -14.6°
Reaches altitude 10° 17:17:41 10° 275° (W) 1,451 0.1 -15.1°
Maximum altitude 17:20:05 19° 227° (SW) 1,019 -0.9 -15.5°
Drops below altitude 10° 17:22:29 10° 179° (S) 1,443 -0.8 -15.9°
Sets 17:24:55 0° 161° (SSE) 2,296 0.0 -16.4°
